Location: Unspecified
(0.0000°N, 0.0000°E)
Time: 09:05:38
(UTC+00:00)

ARIANE 2 DEB - Pass Details

Date: 07 March 2026
Orbit: 561 x 35705 km, 7.7° (Epoch: 19 April)

Event Time Altitude Azimuth Distance (km) Brightness Sun altitude
Rises 02:53:24 0° 263° (W) 13,424 ? -49.1°
Enters shadow 02:55:21 - 263° (W) 13,672 ? -48.7°
Exits shadow 03:56:03 34° 267° (W) 23,020 ? -33.6°
Maximum altitude 04:38:31 37° 269° (W) 28,577 ? -23.0°
Drops below altitude 10° 09:01:16 10° 274° (W) 38,132 ? 42.3°
Sets 11:01:35 0° 277° (W) 27,358 ? 71.9°
